CW5586 Weather Reports


Display with metric or nautical units.
time (UTC)temp
F
wind
direction
speed
MPH
gust
MPH
rain 1hr
in
rain 24hr
in
rain mn
in
humidity
%
barometer
mb
20260509134104 62 350 3.0 13.0 0.00 0.00 0.00 40 1021.1
20260509133604 62 299 10.0 12.0 0.00 0.00 0.00 40 1021.1
20260509131603 62 165 1.0 10.0 0.00 0.00 0.00 40 1021.2
20260509130603 62 197 8.0 15.0 0.00 0.00 0.00 41 1021.2
20260509124103 64 158 9.0 7.0 0.00 0.00 0.00 34 1021.5
20260509123603 64 221 5.0 6.0 0.00 0.00 0.00 34 1021.6
20260509121603 64 156 3.0 6.0 0.00 0.00 0.00 34 1022.0
20260509120603 63 226 2.0 8.0 0.00 0.00 0.00 34 1022.2
20260509120114 63 213 5.0 8.0 0.00 0.00 0.00 34 1022.2
20260509114603 62 236 6.0 5.0 0.00 0.00 0.00 36 1022.5
20260509111604 62 167 5.0 8.0 0.00 0.00 0.00 36 1022.7
20260509111103 62 190 3.0 7.0 0.00 0.00 0.00 39 1022.8
20260509110603 62 227 7.0 9.0 0.00 0.00 0.00 39 1022.8
20260509103604 62 149 3.0 6.0 0.00 0.00 0.00 40 1023.2
20260509103103 61 78 2.0 8.0 0.00 0.00 0.00 42 1023.2
20260509100113 61 198 1.0 8.0 0.00 0.00 0.00 42 1023.3
20260509094603 60 217 3.0 7.0 0.00 0.00 0.00 43 1023.4
20260509094104 59 281 6.0 9.0 0.00 0.00 0.00 45 1023.4
20260509091103 59 167 5.0 7.0 0.00 0.00 0.00 48 1023.6
20260509090603 59 112 2.0 7.0 0.00 0.00 0.00 48 1023.7
20260509090114 59 137 1.0 7.0 0.00 0.00 0.00 48 1023.7
20260509084103 59 190 2.0 5.0 0.00 0.00 0.00 50 1023.8
20260509083103 58 220 2.0 8.0 0.00 0.00 0.00 54 1023.9
20260509081604 56 247 2.0 7.0 0.00 0.00 0.00 56 1023.9
20260509081104 56 188 2.0 7.0 0.00 0.00 0.00 57 1024.0
20260509080115 55 267 7.0 7.0 0.00 0.00 0.00 55 1024.0
20260509074603 55 225 6.0 3.0 0.00 0.00 0.00 57 1024.1
20260509073604 55 82 2.0 5.0 0.00 0.00 0.00 60 1024.1
20260509073104 56 349 3.0 5.0 0.00 0.00 0.00 59 1024.1
20260509071603 54 152 1.0 3.0 0.00 0.00 0.00 63 1024.1
20260509071104 53 122 1.0 3.0 0.00 0.00 0.00 63 1024.3
20260509070603 54 224 3.0 3.0 0.00 0.00 0.00 63 1024.2
20260509070115 53 190 1.0 2.0 0.00 0.00 0.00 63 1024.1
20260509064603 53 150 1.0 5.0 0.00 0.00 0.00 60 1024.4
20260509063603 52 200 2.0 2.0 0.00 0.00 0.00 59 1024.5
20260509063104 52 115 1.0 2.0 0.00 0.00 0.00 60 1024.4
20260509061103 49 205 2.0 2.0 0.00 0.00 0.00 62 1024.4
20260509060114 48 126 1.0 3.0 0.00 0.00 0.00 62 1024.4
20260509053104 46 180 1.0 3.0 0.00 0.00 0.00 64 1024.4
20260509050604 44 145 0.0 2.0 0.00 0.00 0.00 68 1024.4
20260509044603 41 0 0.0 2.0 0.00 0.00 0.00 75 1024.4
20260509044104 40 135 0.0 2.0 0.00 0.00 0.00 78 1024.4
20260509043103 39 0 0.0 2.0 0.00 0.00 0.00 84 1024.4
20260509041103 37 0 0.0 0.0 0.00 0.00 0.00 86 1024.4
20260509040604 36 0 0.0 0.0 0.00 0.00 0.00 85 1024.4
20260509033103 35 55 0.0 2.0 0.00 0.00 0.00 84 1024.4
20260509031603 35 55 1.0 1.0 0.00 0.00 0.00 85 1024.6
20260509030114 35 55 1.0 2.0 0.00 0.00 0.00 86 1024.6
20260509024103 36 0 0.0 0.0 0.00 0.00 0.00 86 1024.6
20260509023104 36 0 0.0 2.0 0.00 0.00 0.00 87 1024.7
20260509021104 37 65 0.0 2.0 0.00 0.00 0.00 88 1024.7
20260509020604 37 65 1.0 2.0 0.00 0.00 0.00 88 1024.8
20260509014603 38 108 1.0 2.0 0.00 0.00 0.00 86 1024.9
20260509013604 38 0 0.0 3.0 0.00 0.00 0.00 88 1024.9
20260509011604 38 39 1.0 2.0 0.00 0.00 0.00 86 1024.9
20260509011103 38 39 1.0 2.0 0.00 0.00 0.00 86 1024.9
20260509010607 38 39 1.0 2.0 0.00 0.00 0.00 86 1024.9
20260509001604 40 92 1.0 2.0 0.00 0.00 0.00 82 1024.8
20260509001104 40 92 1.0 2.0 0.00 0.00 0.00 83 1024.8
20260508234604 40 0 0.0 2.0 0.00 0.00 0.00 81 1024.8
20260508233603 40 0 0.0 2.0 0.00 0.00 0.00 82 1024.9
20260508233104 40 16 1.0 1.0 0.00 0.00 0.00 81 1024.9
20260508231604 41 16 1.0 1.0 0.00 0.00 0.00 79 1025.1
20260508230114 41 5 1.0 2.0 0.00 0.00 0.00 78 1024.9
20260508223603 42 92 3.0 2.0 0.00 0.00 0.00 79 1024.9
20260508221604 43 0 0.0 0.0 0.00 0.00 0.00 74 1024.6
20260508220604 44 0 0.0 0.0 0.00 0.00 0.00 72 1024.6
20260508213604 45 0 0.0 0.0 0.00 0.00 0.00 71 1024.3
20260508213109 45 0 0.0 0.0 0.00 0.00 0.00 70 1024.3
20260508211604 46 0 0.0 0.0 0.00 0.00 0.00 70 1024.1
20260508211104 46 0 0.0 0.0 0.00 0.00 0.00 69 1024.1
20260508210603 46 0 0.0 0.0 0.00 0.00 0.00 68 1024.0
20260508204603 48 0 0.0 2.0 0.00 0.00 0.00 66 1024.0
20260508204103 48 0 0.0 2.0 0.00 0.00 0.00 63 1023.9
20260508201103 50 0 0.0 1.0 0.00 0.00 0.00 57 1023.7
20260508200604 50 0 0.0 2.0 0.00 0.00 0.00 57 1023.6
20260508200114 51 276 1.0 2.0 0.00 0.00 0.00 56 1023.6
20260508194603 51 268 2.0 2.0 0.00 0.00 0.00 54 1023.5
20260508193104 53 0 0.0 2.0 0.00 0.00 0.00 52 1023.5
20260508190603 54 254 1.0 2.0 0.00 0.00 0.00 46 1023.4
20260508190114 54 226 1.0 2.0 0.00 0.00 0.00 45 1023.4
20260508184103 56 252 2.0 2.0 0.00 0.00 0.00 43 1023.3
20260508183103 56 295 1.0 5.0 0.00 0.00 0.00 42 1023.1
20260508181104 58 280 0.0 6.0 0.00 0.00 0.00 41 1023.0
20260508180115 58 273 2.0 8.0 0.00 0.00 0.00 40 1022.9
20260508174603 59 277 3.0 7.0 0.00 0.00 0.00 39 1022.8
20260508173104 59 273 1.0 9.0 0.00 0.00 0.00 39 1022.8
20260508171603 60 9 2.0 7.0 0.00 0.00 0.00 40 1022.7
20260508171104 60 250 2.0 7.0 0.00 0.00 0.00 40 1022.7
20260508170604 60 282 1.0 6.0 0.00 0.00 0.00 39 1022.7
20260508170114 60 292 2.0 7.0 0.00 0.00 0.00 40 1022.7
20260508164603 61 253 6.0 5.0 0.00 0.00 0.00 39 1022.6
20260508163603 61 262 5.0 9.0 0.00 0.00 0.00 39 1022.6
20260508161104 61 269 5.0 12.0 0.00 0.00 0.00 35 1022.6
20260508160604 61 237 2.0 12.0 0.00 0.00 0.00 35 1022.6
20260508153104 63 298 3.0 9.0 0.00 0.00 0.00 36 1022.6
20260508151604 62 315 6.0 9.0 0.00 0.00 0.00 38 1022.6
20260508144603 61 269 3.0 9.0 0.00 0.00 0.00 38 1022.7
20260508144104 62 229 3.0 10.0 0.00 0.00 0.00 36 1022.8
20260508143603 63 238 5.0 10.0 0.00 0.00 0.00 37 1022.8
20260508143105 63 164 5.0 10.0 0.00 0.00 0.00 37 1022.7
20260508141104 61 282 3.0 7.0 0.00 0.00 0.00 38 1022.7